Find Starlink 35184

NORAD ID: 65506 Int'l Des: 2025-198 Owner: SPXS Country: US Constellation: starlink operational
LEOCIRCULAR

現在のビュー

3D地球を読み込み中...

Starlink 35184について

説明を読み込み中...

次回通過

Passes for default location (London). Set your location on the main map for personalized predictions.

高度履歴

Loading altitude history...

軌道要素

1 65506U 25198Q 26149.54916116 .00022156 00000-0 66537-3 0 9998
2 65506 53.1604 254.4485 0001207 63.5938 296.5188 15.34378860 41019
Epoch: May 29, 2026 • Age: 14 hours

現在のステータス

高度 468.4 km
速度 7.64 km/s
衛星直下点 52.61°N, 51.78°E
打ち上げ日 Sep 5, 2025
運用期間 0.7 years
タイプ internet

技術仕様

分類 Payload
質量 575.00 kg
乾燥質量 530.00 kg
総質量 575.00 kg
長さ 0.30 m
直径 4.10 m
スパン 29.00 m
形状 Box + pan
製造者 SPXS
バスタイプ Starlink V2MO
フェーズステータス In Orbit
所有者/国 SPXS/US

Most Searched